Regional Weather Roundup
Issued by NWS

Home | Current Version | Previous Version | Text Only | Print | Product List | Glossary Off
Versions: 1 2 3 4 5 6 7 8 9 10 11 12 13 14 15 16 17 18 19 20 21 22 23 24 25 26 27 28 29 30 31 32 33 34 35 36 37 38 39 40 41 42 43 44 45 46 47 48 49 50

000
ASUS43 KBIS 241602
RWRND

NORTH DAKOTA REGIONAL WEATHER ROUNDUP
NATIONAL WEATHER SERVICE BISMARCK ND
1000 AM CST SAT FEB 24 2018

NOTE: "FAIR" INDICATES FEW OR NO CLOUDS BELOW 12,000 FEET WITH NO
SIGNIFICANT WEATHER AND/OR OBSTRUCTIONS TO VISIBILITY.


NDZ001>003-009>011-017-241700-
NORTHWEST NORTH DAKOTA

CITY           SKY/WX    TMP DP  RH WIND       PRES   REMARKS
WILLISTON      SUNNY     -1  -5  82 SW6       29.75F WCI -13
MINOT          CLOUDY    13   3  64 S13       29.77F WCI  -2
MINOT AFB      CLOUDY    12   3  66 S12         N/A  WCI  -2
$$

NDZ018>021-031>035-040>046-241700-
SOUTHWEST NORTH DAKOTA

CITY           SKY/WX    TMP DP  RH WIND       PRES   REMARKS
BISMARCK       CLOUDY    10   4  76 SW3       29.87F
DICKINSON      CLOUDY    15  11  83 S9        29.71F WCI   3
GARRISON         N/A      9   4  80 SE5       29.79F WCI   1
HETTINGER ARPT CLOUDY     8   4  83 SW5       29.77F WCI   0
$$

NDZ004>008-012>016-024-026-027-054-241700-
NORTHEAST NORTH DAKOTA

CITY           SKY/WX    TMP DP  RH WIND       PRES   REMARKS
GRAND FORKS    FAIR       6   2  83 S14       29.99F WCI -11
GRND FRKS AFB  FAIR      10   3  72 S14       29.97F WCI  -6
DEVILS LAKE    FAIR      12   7  80 SE8       29.88F WCI   0
$$

NDZ022-023-025-028>030-036>039-047>053-241700-
SOUTHEAST NORTH DAKOTA

CITY           SKY/WX    TMP DP  RH WIND       PRES   REMARKS
FARGO          FAIR       5   2  87 S9        30.04F WCI  -9
JAMESTOWN      CLOUDY     7   3  84 S10       29.91F WCI  -8
$$





USA.gov is the U.S. government's official web portal to all federal, state and local government web resources and services.